• Join FlightAware (Why Join?)
  • Login
  • US Flag GB Flag 
23:56 EDT


 

Airport Tracker/Info


-or-


 

Live Flight TrackerFlight Track Log ✈ SKW6335 ✈ 22-Apr-2013 ✈ KSAN - KLAX

Flight Track Log - Related Links

Times and Time Zones

All times are in EDT time to prevent confusion due to time zone crossing. See the SKW6335 flight status page for this flight to view local times or setup timezone preferences in your user account.

Time Position Orientation Groundspeed Altitude Reporting Facility
EDT Latitude Longitude Course Direction KTS MPH feet Rate Location/Type
19:10 32.7833 -117.2833 308° West 184 212 3,000  Level Southern California TRACON
19:11 32.8167 -117.3333 308° West 194 223 4,500 1,380 Climbing Southern California TRACON
19:11 32.8158 -117.3328 151° Southeast 177 204 4,800 1,440 Climbing Los Angeles Center
19:12 32.9353 -117.3853 320° Northwest  Level FlightAware Approximate
19:12 32.8511 -117.3800 312° West 185 213 6,400  Level Los Angeles Center
19:13 32.9862 -117.4360 320° Northwest  Level FlightAware Approximate
19:13 32.8953 -117.4350 314° West 189 217 7,900  Level Los Angeles Center
19:14 33.0370 -117.4867 320° Northwest  Level FlightAware Approximate
19:14 32.9369 -117.4875 313° West 203 234 8,000  Level Los Angeles Center
19:15 32.9808 -117.5472 311° West 224 258 8,000  Level Los Angeles Center
19:16 33.0225 -117.6078 309° West 232 267 8,000  Level Los Angeles Center
19:17 33.0658 -117.6689 310° West 237 273 8,000  Level Los Angeles Center
19:18 33.1094 -117.7300 310° West 240 276 8,000  Level Los Angeles Center
19:19 33.1842 -117.7719 335° Northwest 250 288 8,000  Level Los Angeles Center
19:20 33.2500 -117.8019 339° North 253 291 8,000  Level Los Angeles Center
19:21 33.3150 -117.8333 338° Northwest 253 291 8,000  Level Los Angeles Center
19:22 33.3808 -117.8639 339° North 253 291 8,000  Level Los Angeles Center
19:23 33.4464 -117.8922 340° North 252 290 8,000  Level Los Angeles Center
19:24 33.5117 -117.9228 339° North 252 290 8,000 -360 Level Los Angeles Center
19:25 33.5914 -117.9608 338° Northwest 255 293 7,300 -540 Descending Los Angeles Center
19:26 33.6614 -117.9967 337° Northwest 269 310 7,000 -240 Descending Los Angeles Center
19:27 33.6833 -118.0000 353° North 263 303 7,000  Level Southern California TRACON
19:28 33.7500 -118.0333 337° Northwest 258 297 7,000  Level Southern California TRACON
19:29 33.8167 -118.0500 348° North 278 320 7,000 -300 Level Southern California TRACON
19:30 33.8833 -118.0667 348° North 262 302 6,400 -840 Descending Southern California TRACON
19:31 33.9500 -118.1333 320° Northwest 261 300 5,400 -1,440 Descending Southern California TRACON
19:31 33.9500 -118.2000 270° West 231 266 3,700 -1,920 Descending Southern California TRACON